User: anonymous   Login
Location: Biharia
(46.4333°N, 22.8000°E)
Time: 23:40:52
(UTC+00:00)
Language:

CSL-04 Rocket - Orbit

View from above orbital plane
View from above orbital plane
View from above satellite
View from above satellite

Ground track
Ground track

The orbit data is extracted from the following two-line orbital elements,

1 25732U 99025C   22276.14179587  .00000055  00000-0  48692-4 0  9998
2 25732  98.8438 317.1057 0036947 341.2464  84.7763 14.17745616210514
Epoch (UTC): 03 October 2022 03:24:11
Eccentricity: 0.0036947
inclination: 98.8438°
perigee height: 806 km
apogee height: 859 km
right ascension of ascending node: 317.1057°
argument of perigee: 341.2464°
revolutions per day: 14.17745616
mean anomaly at epoch: 84.7763°
orbit number at epoch: 21051

The dashed part of the orbit path shows where the satellite is in the earth's shadow,  

DLR